{"data":{"norad_id":65819,"epoch":"2026-09-20T06:20:54.637728Z","epoch_age_seconds":167087,"freshness":"FRESH","line1":"1 65819U 25220C   26263.26452127  .00000053  00000+0  89176-4 0  9990","line2":"2 65819  86.4996  11.6062 0001341  89.0939 271.0348 13.24411198 47501","mean_motion":13.24411198,"eccentricity":0.0001341,"inclination_deg":86.4996,"raan_deg":11.6062,"arg_perigee_deg":89.0939,"mean_anomaly_deg":271.0348,"bstar":8.9176e-5,"rev_number":4750,"period_min":108.72756151372,"perigee_km":1166.9057091597,"apogee_km":1168.9295610128,"semimajor_km":7546.0546350862,"source":"CELESTRAK","updated_at":"2026-09-21T09:00:15.571990Z"}}